This demonstration page uses our WeatherBlox Daily Observations layout. Learn more.

39.51506, -84.39828

Hourly Observations for November 29, 2018

Temp ( °F °C ) Dew Point ( °F °C ) Humidity (%) Winds ( mph kmh ) Pressure ( in mb ) Visibility ( mi km ) Precip ( " mm )
12:15 am 00:15 Cloudy 26 -3.3 20 -6.4 79 79 Calm 30.15 1021 10 16.0934 0 0
12:35 am 00:35 Cloudy 26 -3.2 20 -6.4 79 79 Calm 30.15 1021 10 16.0934 0 0
12:55 am 00:55 Cloudy 27 -2.9 21 -6.1 79 79 Calm 30.12 1020 10 16.0934 0 0
1:15 am 01:15 Cloudy 27 -3 21 -5.9 81 81 Calm 30.12 1020 10 16.0934 0 0
1:35 am 01:35 Cloudy 27 -2.9 21 -5.9 80 80 Calm 30.15 1021 10 16.0934 0 0
1:55 am 01:55 Cloudy 27 -2.8 22 -5.5 82 82 Calm 30.15 1021 10 16.0934 0 0
2:15 am 02:15 Cloudy 27 -2.7 22 -5.5 81 81 Calm 30.12 1020 10 16.0934 0 0
2:35 am 02:35 Cloudy 27 -2.8 22 -5.7 81 81 Calm 30.15 1021 10 16.0934 0 0
2:55 am 02:55 Mostly Cloudy 26 -3.3 22 -5.6 84 84 Calm 30.15 1021 10 16.0934 0 0
3:15 am 03:15 Partly Cloudy 27 -2.9 22 -5.4 83 83 Calm 30.15 1021 10 16.0934 0 0
3:35 am 03:35 Mostly Cloudy 27 -2.8 22 -5.4 83 83 Calm 30.15 1021 10 16.0934 0 0
3:55 am 03:55 Partly Cloudy 27 -2.6 22 -5.4 81 81 ESE 3 6 30.12 1020 10 16.0934 0 0
4:15 am 04:15 Mostly Cloudy 28 -2.4 22 -5.3 81 81 ESE 6 9 30.12 1020 10 16.0934 0 0
4:35 am 04:35 Cloudy 28 -2.3 22 -5.4 80 80 ESE 3 6 30.12 1020 10 16.0934 0 0
4:55 am 04:55 Cloudy 28 -2.2 22 -5.5 78 78 SE 5 7 30.09 1019 10 16.0934 0 0
5:15 am 05:15 Cloudy 28 -2.1 22 -5.7 77 77 SE 3 6 30.09 1019 10 16.0934 0 0
5:35 am 05:35 Cloudy 28 -2 22 -5.6 77 77 SE 5 7 30.09 1019 10 16.0934 0 0
5:55 am 05:55 Clear 28 -2 22 -5.6 77 77 SE 6 9 30.09 1019 10 16.0934 0 0
6:15 am 06:15 Clear 28 -2.2 22 -5.7 77 77 SE 5 7 30.09 1019 10 16.0934 0 0
6:35 am 06:35 Clear 28 -2.4 22 -5.7 78 78 SE 3 6 30.09 1019 10 16.0934 0 0
6:55 am 06:55 Cloudy 28 -2 22 -5.5 77 77 SSE 5 7 30.09 1019 10 16.0934 0 0
7:15 am 07:15 Cloudy 29 -1.9 23 -5.1 79 79 SE 6 9 30.09 1019 10 16.0934 0 0
7:35 am 07:35 Cloudy with Light Snow 29 -1.8 23 -4.9 80 80 ESE 6 9 30.09 1019 10 16.0934 0 0
7:55 am 07:55 Cloudy with Light Snow 29 -1.8 23 -4.9 80 80 ESE 6 9 30.09 1019 7 11.26538 0 0
8:15 am 08:15 Cloudy 29 -1.6 24 -4.7 80 80 ESE 3 6 30.09 1019 10 16.0934 0 0
8:35 am 08:35 Cloudy 29 -1.4 23 -4.8 78 78 SE 3 6 30.09 1019 10 16.0934 0 0
8:55 am 08:55 Cloudy 30 -1.3 23 -5 76 76 ESE 6 9 30.09 1019 10 16.0934 0 0
9:15 am 09:15 Cloudy 30 -1.1 24 -4.5 78 78 ESE 3 6 30.06 1018 10 16.0934 0 0
9:35 am 09:35 Cloudy 30 -0.9 23 -5 74 74 ESE 6 9 30.09 1019 10 16.0934 0 0
9:55 am 09:55 Cloudy 31 -0.7 24 -4.5 76 76 ESE 3 6 30.09 1019 10 16.0934 0 0
10:15 am 10:15 Cloudy 31 -0.5 24 -4.7 74 74 ESE 3 6 30.09 1019 10 16.0934 0 0
10:35 am 10:35 Cloudy 31 -0.3 24 -4.7 73 73 ESE 5 7 30.09 1019 10 16.0934 0 0
10:55 am 10:55 Cloudy 32 0 24 -4.5 72 72 E 3 6 30.09 1019 10 16.0934 0 0
11:15 am 11:15 Cloudy 32 0.1 24 -4.4 72 72 ESE 6 9 30.06 1018 10 16.0934 0 0
11:35 am 11:35 Cloudy 32 0.2 24 -4.5 71 71 ESE 5 7 30.03 1017 10 16.0934 0 0
11:55 am 11:55 Cloudy 33 0.3 24 -4.6 70 70 SE 5 7 30.03 1017 10 16.0934 0 0
12:15 pm 12:15 Cloudy 33 0.6 24 -4.4 70 70 SE 9 15 30 1016 10 16.0934 0 0
12:35 pm 12:35 Cloudy 33 0.7 25 -4.1 71 71 SE 7 11 30 1016 10 16.0934 0 0
12:55 pm 12:55 Cloudy 33 0.8 25 -4 71 71 SE 8 13 30 1016 10 16.0934 0 0
1:15 pm 13:15 Cloudy 34 0.9 26 -3.6 72 72 SE 6 9 30 1016 10 16.0934 0 0
1:35 pm 13:35 Cloudy 34 1.2 26 -3.1 73 73 ESE 5 7 29.97 1015 10 16.0934 0 0
1:55 pm 13:55 Cloudy 34 1.2 26 -3.1 73 73 SE 6 9 29.97 1015 10 16.0934 0 0
2:15 pm 14:15 Cloudy 35 1.4 27 -2.6 75 75 SE 6 9 29.97 1015 10 16.0934 0 0
2:35 pm 14:35 Cloudy 35 1.6 28 -2.2 76 76 SSE 7 11 29.97 1015 10 16.0934 0 0
2:55 pm 14:55 Cloudy 35 1.6 28 -2 77 77 SSE 7 11 29.97 1015 10 16.0934 0 0
3:15 pm 15:15 Cloudy 35 1.8 29 -1.7 78 78 SSE 7 11 29.97 1015 10 16.0934 0 0
3:35 pm 15:35 Cloudy 35 1.8 30 -1 82 82 S 7 11 29.97 1015 10 16.0934 0 0
3:55 pm 15:55 Cloudy 35 1.7 31 -0.8 84 84 SSE 8 13 29.97 1015 10 16.0934 0 0
4:15 pm 16:15 Cloudy 35 1.6 30 -0.9 84 84 SE 7 11 29.97 1015 10 16.0934 0 0
4:35 pm 16:35 Cloudy 35 1.6 31 -0.7 85 85 SE 5 7 29.97 1015 10 16.0934 0 0
4:55 pm 16:55 Cloudy 35 1.5 31 -0.5 87 87 SE 6 9 29.97 1015 7 11.26538 0 0
5:15 pm 17:15 Cloudy 35 1.5 31 -0.3 88 88 SE 7 11 29.97 1015 7 11.26538 0 0
5:35 pm 17:35 Cloudy 35 1.5 31 -0.3 88 88 SE 5 7 29.97 1015 7 11.26538 0 0
5:55 pm 17:55 Cloudy with Mist and Fog 35 1.4 32 0.1 91 91 Calm 29.97 1015 5 8.0467 0 0
6:15 pm 18:15 Cloudy with Mist and Fog 34 1.3 33 0.4 94 94 Calm 29.97 1015 3.5 5.63269 0 0
6:35 pm 18:35 Cloudy with Mist and Fog 34 1.2 33 0.5 95 95 ENE 3 6 29.97 1015 2.5 4.02335 0 0
6:55 pm 18:55 Cloudy with Mist and Fog 34 1.3 33 0.7 96 96 Calm 29.97 1015 2.5 4.02335 0 0
7:15 pm 19:15 Cloudy with Mist and Fog 34 1.3 33 0.8 97 97 Calm 29.97 1015 1.75 2.816345 0 0
7:35 pm 19:35 Cloudy with Mist and Fog 34 1.3 34 0.9 97 97 Calm 30 1016 1.5 2.41401 0 0
7:55 pm 19:55 Cloudy with Mist and Fog 35 1.4 34 1.1 98 98 ENE 3 6 29.97 1015 1.75 2.816345 0 0
8:15 pm 20:15 Cloudy with Mist and Fog 35 1.4 34 1.1 98 98 Calm 29.97 1015 1.25 2.011675 0 0
8:35 pm 20:35 Cloudy with Mist and Fog 35 1.5 34 1.3 99 99 Calm 29.97 1015 1.25 2.011675 0 0
8:55 pm 20:55 Cloudy with Mist and Fog 35 1.5 34 1.3 99 99 Calm 29.97 1015 1.25 2.011675 0 0
9:15 pm 21:15 Cloudy with Mist and Fog 35 1.5 35 1.4 99 99 Calm 29.97 1015 1 1.60934 0 0
9:35 pm 21:35 Cloudy with Mist and Fog 35 1.6 35 1.4 99 99 Calm 29.97 1015 1.25 2.011675 0 0
9:55 pm 21:55 Cloudy with Mist and Fog 35 1.6 35 1.4 99 99 Calm 29.97 1015 2 3.21868 0 0
10:15 pm 22:15 Cloudy with Mist and Fog 35 1.7 35 1.5 99 99 Calm 30 1016 2 3.21868 0 0
10:35 pm 22:35 Cloudy with Mist and Fog 35 1.7 35 1.5 99 99 Calm 29.97 1015 1.75 2.816345 0 0
10:55 pm 22:55 Cloudy with Mist and Fog 35 1.9 35 1.7 99 99 Calm 29.97 1015 2 3.21868 0 0
11:15 pm 23:15 Cloudy with Mist and Fog 35 1.9 35 1.6 98 98 N 3 6 29.97 1015 2 3.21868 0 0
11:35 pm 23:35 Cloudy with Mist and Fog 35 1.9 35 1.7 99 99 Calm 29.97 1015 2.5 4.02335 0 0
11:55 pm 23:55 Cloudy with Mist and Fog 36 2 35 1.7 98 98 Calm 29.97 1015 2.5 4.02335 0 0

Powered by AerisWeather